Wind_Speed
19 16 14 12 7 12 12 12 17 16 16 16 15 13 12 10 9 9 8 6 7 12 12 13 16 18 21 25 30 30 31 29 22 9 6 2 6 4 9 14 18 19 24 28 26 28 29 30 30
16 13 9 13 14 13 13 18 23 24 19 19 20 18 18 16 13 10 8 7 8 6 5 6 9 13 17 20 20 19 14 10 6 2 8 8 10 10 15 16 20 22 25 28 27 29 30 33 34
12 6 9 9 10 11 20 22 27 32 28 22 25 25 27 29 30 29 27 25 22 20 17 14 11 9 12 13 14 15 13 10 11 9 11 13 13 14 16 19 20 25 27 28 27 28 30 34 35
9 7 6 5 11 14 18 23 29 32 35 35 29 28 27 24 25 25 24 23 22 21 20 20 17 11 9 9 10 10 13 12 14 15 12 15 13 12 18 20 22 25 28 26 27 26 30 33 33
4 1 4 12 19 21 22 24 28 31 35 37 38 37 35 32 29 26 26 24 25 25 26 23 20 15 10 5 1 7 11 16 19 18 20 15 15 15 21 23 24 25 26 26 24 25 26 29 31
12 11 12 20 19 23 23 24 27 29 30 34 37 40 40 41 38 31 28 28 32 34 33 28 25 22 19 12 10 13 17 23 25 26 31 21 18 22 21 26 26 25 24 23 21 20 22 25 27
15 13 17 18 19 24 23 24 26 28 29 29 32 34 35 37 39 39 36 38 38 37 38 36 36 35 30 27 25 26 29 31 28 27 28 26 24 23 24 26 26 24 22 19 17 16 16 19 21
12 15 17 18 19 20 21 24 26 27 29 28 27 30 32 33 37 39 37 39 40 40 42 43 45 45 44 36 34 36 37 35 32 39 37 31 27 24 27 28 25 22 20 18 16 13 11 12 15
9 15 17 18 18 19 20 21 21 22 23 24 26 27 27 27 31 35 37 38 39 40 40 41 44 46 47 44 39 37 39 40 42 41 38 34 29 28 30 26 22 20 18 14 14 11 9 10 11
13 15 17 19 18 17 19 17 17 20 20 18 21 21 24 26 26 29 33 34 34 36 37 39 40 42 45 46 41 39 39 40 41 40 36 32 31 29 27 23 19 17 16 15 14 11 9 6 6
8 15 19 21 18 15 16 14 13 16 20 20 21 22 23 24 27 26 27 30 32 31 33 35 36 38 40 43 45 41 36 34 35 35 32 35 30 29 24 18 14 12 13 12 10 9 9 7 7
18 13 23 20 16 14 14 11 11 12 14 18 19 20 21 19 22 23 24 27 27 30 28 29 32 31 35 37 39 39 36 32 31 29 27 25 25 22 18 18 16 14 12 10 7 6 8 8 6
19 18 21 18 15 12 11 8 6 7 10 13 15 19 20 17 20 19 21 24 26 26 27 28 26 27 28 30 30 30 30 28 26 25 23 20 18 15 11 9 7 9 7 6 9 11 6 4 3
18 18 17 16 12 11 9 4 1 4 9 11 13 14 15 13 17 20 18 19 22 24 23 25 27 27 27 25 27 25 21 19 16 14 15 15 11 6 2 4 5 4 5 4 6 8 10 12 3
18 17 17 16 15 12 8 6 4 5 7 10 13 11 11 10 11 15 16 14 17 21 20 21 23 26 28 27 24 20 22 20 18 11 8 9 8 9 6 5 4 4 5 7 7 10 16 11 3
14 16 17 15 14 12 9 9 10 10 10 8 10 12 10 7 8 11 10 12 13 15 19 13 17 18 21 21 22 22 17 15 17 19 14 13 16 20 17 16 12 14 13 8 5 7 12 17 14
14 16 15 15 14 14 14 15 15 16 15 14 14 13 12 9 7 14 13 9 7 10 12 12 6 10 11 11 15 15 18 14 7 16 15 12 14 10 11 9 12 11 8 8 6 6 5 7 11
22 22 19 18 18 19 20 21 21 22 22 20 20 17 16 13 10 11 12 15 18 7 4 6 6 6 10 11 14 15 15 16 11 8 10 14 16 12 15 17 12 17 16 14 7 6 8 9 8
29 27 26 25 24 25 26 28 27 28 27 24 23 23 21 17 16 15 13 16 21 20 14 11 6 7 10 12 13 16 20 18 15 10 6 11 18 17 15 16 17 18 18 19 13 10 9 11 11
28 28 27 27 29 30 29 30 31 31 32 31 29 27 27 26 26 23 24 19 20 24 23 20 19 15 15 19 20 22 21 19 19 22 13 18 18 20 18 18 17 18 20 22 21 17 13 19 18
31 29 31 31 32 29 34 37 36 38 38 36 34 31 31 28 27 32 30 26 24 25 27 26 25 25 23 23 24 23 27 26 27 26 22 25 25 26 26 22 19 20 20 23 24 26 16 15 22
31 33 37 37 34 28 26 37 41 41 40 41 40 40 39 37 35 35 34 31 29 31 31 29 28 27 30 31 29 30 34 35 33 27 23 28 27 27 27 28 22 25 23 20 25 27 28 27 27
40 47 45 43 42 39 46 39 18 40 48 50 48 47 45 44 44 41 38 38 35 38 35 34 33 33 34 37 36 35 38 37 27 25 23 30 33 32 34 30 29 31 31 30 32 34 32 34 39
52 50 50 51 50 47 45 45 46 31 40 39 44 47 49 49 47 47 45 45 43 41 41 38 41 40 41 44 39 34 33 33 33 32 35 35 36 37 39 34 38 37 37 34 36 39 40 39 35
56 56 56 54 48 43 43 50 54 51 63 57 53 44 42 48 49 50 51 50 51 52 47 46 45 44 45 42 37 36 32 23 28 30 30 29 36 40 42 46 41 41 44 44 44 43 43 44 46
57 56 59 60 59 51 37 26 37 54 65 62 60 58 57 55 43 46 52 54 52 51 50 48 49 48 47 42 40 32 32 32 33 38 34 45 52 54 48 49 46 45 48 44 46 47 43 47 49
59 61 63 64 63 63 64 68 76 66 70 70 68 65 62 64 64 66 70 62 52 44 48 46 46 45 45 43 43 42 46 49 46 47 43 42 42 47 53 54 56 48 44 48 47 48 45 53 54
62 62 62 62 63 63 65 67 71 68 77 68 69 68 67 67 71 72 73 72 71 70 69 66 58 60 51 58 52 51 56 58 55 51 51 45 47 54 62 56 45 54 50 57 62 55 50 56 59
58 60 60 62 62 63 64 69 69 69 73 67 69 68 68 68 68 69 70 71 72 73 74 76 74 68 63 59 59 60 56 62 57 58 61 59 62 61 62 62 65 60 60 60 63 64 60 63 65
54 55 54 55 56 59 60 61 63 65 63 58 63 64 65 65 66 68 71 72 72 73 73 73 72 70 70 74 72 73 71 70 69 63 60 59 64 63 66 66 64 68 67 66 72 77 77 74 74
Wind_Direction
117 97 83 45 26 7 358 32 36 13 358 354 3 360 352 351 344 331 323 307 313 306 304 292 284 277 269 265 272 272 273 274 280 273 292 102 117 95 114 121 115 112 115 106 98 89 83 77 70
120 100 66 30 31 14 66 63 50 42 36 42 44 48 53 48 46 44 42 41 50 41 357 336 298 283 278 274 274 275 274 258 227 157 147 132 110 94 119 120 119 120 116 105 98 91 85 77 73
119 84 67 17 21 90 77 67 56 51 50 58 56 64 67 65 64 67 70 69 59 51 39 25 358 318 294 277 275 272 263 239 195 163 143 133 102 119 115 125 124 126 116 108 103 98 88 80 77
102 89 19 60 100 99 79 68 58 52 50 57 59 62 61 59 60 60 63 60 55 45 36 22 9 347 313 283 264 249 229 207 182 174 161 147 120 118 128 126 129 125 119 116 110 102 92 86 83
139 187 36 108 108 98 83 71 64 55 53 58 62 64 61 56 59 59 59 58 50 42 35 28 28 33 30 20 224 184 172 157 156 159 139 130 123 137 131 130 131 118 120 118 113 103 91 87 84
106 104 119 116 106 97 85 76 68 63 57 59 61 64 66 63 62 62 57 54 50 45 39 39 43 47 47 56 93 127 129 132 137 140 137 135 137 138 132 128 128 119 122 120 113 102 84 81 81
104 122 129 115 114 102 91 84 74 69 61 57 56 59 61 63 63 61 56 52 52 48 47 48 54 56 61 74 88 100 111 119 129 131 137 133 136 128 125 126 122 123 116 116 112 111 85 77 73
97 128 127 119 120 106 94 88 79 74 68 59 57 54 57 61 60 58 56 54 52 52 54 57 57 56 60 66 82 97 106 113 119 124 128 130 122 119 122 122 124 126 122 120 106 99 94 76 66
113 139 132 131 124 114 101 93 76 69 68 67 61 60 56 53 56 56 52 52 54 54 57 59 55 57 60 64 74 90 104 112 117 121 120 117 115 116 122 122 127 120 120 115 105 99 89 59 60
309 160 145 144 134 122 113 95 78 65 55 61 64 57 57 59 55 55 55 51 57 57 58 59 58 59 62 64 67 78 91 103 110 111 113 111 106 112 119 121 122 119 117 113 104 106 103 106 69
98 174 158 148 145 132 117 97 80 65 60 54 50 50 52 56 60 59 54 52 52 61 58 59 60 62 66 65 68 73 81 92 104 107 104 107 102 100 100 113 116 109 116 113 98 84 79 91 91
164 167 154 152 151 141 125 116 91 65 55 52 49 48 51 52 47 53 56 51 53 57 63 59 58 59 64 72 71 76 82 86 89 92 99 107 115 104 85 80 84 99 114 103 88 71 97 82 75
161 159 162 166 168 168 146 128 101 73 51 44 37 42 45 58 52 42 47 55 55 56 63 67 65 63 65 66 70 76 77 79 83 86 92 99 112 113 98 77 47 34 63 79 74 62 63 21 346
180 168 177 195 192 181 166 141 22 27 21 19 25 27 33 41 38 45 40 56 55 54 61 69 69 71 72 74 74 74 73 73 77 75 84 80 78 62 12 325 337 348 346 347 335 321 338 347 276
196 189 188 197 200 201 213 245 253 315 332 343 347 13 14 24 33 26 40 46 56 43 50 74 84 77 70 71 69 72 73 73 67 68 63 57 44 46 34 25 343 353 300 293 320 338 351 16 320
193 197 203 195 203 215 229 246 258 272 297 318 326 337 7 4 354 1 7 47 47 44 51 63 74 78 71 61 54 54 63 68 68 50 47 45 50 37 32 38 38 35 20 32 73 53 38 38 28
219 231 222 218 221 230 239 243 262 275 287 295 302 309 318 345 339 335 340 357 21 46 52 60 55 52 44 34 18 34 37 43 53 36 38 33 12 19 16 13 354 346 1 5 20 28 16 37 44
222 230 234 240 246 246 250 257 264 272 277 281 287 294 298 302 306 299 318 318 319 331 334 36 64 17 23 23 8 3 7 6 13 1 1 1 1 353 339 337 322 332 322 317 319 324 322 328 355
229 230 233 238 246 254 263 266 266 271 275 275 277 284 285 284 287 288 288 291 302 310 304 306 297 318 323 336 349 355 356 345 332 335 331 329 329 337 326 321 317 302 310 305 301 296 314 313 308
239 241 240 242 247 253 256 261 267 268 274 278 279 279 283 278 284 290 290 271 289 298 302 301 303 291 305 312 311 314 319 326 322 314 300 314 312 315 320 308 301 295 298 299 290 294 303 301 300
247 249 252 256 254 266 275 271 268 272 274 274 275 275 280 281 281 283 285 272 270 281 291 294 300 294 300 313 303 304 302 311 316 309 301 296 315 299 300 297 293 287 280 287 282 284 279 290 286
251 259 249 253 262 271 262 268 273 273 270 273 276 275 274 275 277 280 277 266 271 280 285 280 289 293 295 295 298 299 301 303 303 300 295 315 314 309 307 286 279 283 280 283 279 273 275 278 276
245 257 261 260 261 257 263 265 296 280 280 274 274 275 276 277 279 277 271 267 271 280 277 279 278 283 283 286 290 294 294 296 299 307 306 312 317 303 295 286 282 279 272 267 272 269 279 272 282
259 259 261 265 268 268 270 274 257 275 246 267 276 275 275 277 275 274 269 270 272 277 275 276 279 282 288 287 279 282 288 289 287 288 288 293 304 290 288 283 281 272 270 272 277 270 274 280 288
259 259 260 262 263 267 280 275 257 252 262 261 257 253 260 269 270 268 266 264 268 278 276 273 273 274 281 274 270 272 273 269 268 268 272 273 274 280 286 278 275 269 266 271 277 278 273 270 275
256 260 263 262 262 258 229 269 277 259 259 263 264 264 260 255 245 251 261 262 264 269 270 274 275 274 271 270 271 261 262 257 263 266 263 276 267 279 284 277 278 280 281 272 272 273 270 276 275
256 256 255 259 259 256 253 251 257 262 264 264 263 260 256 255 254 262 267 265 252 248 260 268 267 261 262 256 256 255 259 260 263 264 260 260 264 261 262 279 265 286 283 271 269 265 261 269 272
259 259 259 259 258 259 256 257 257 270 264 269 266 266 264 261 261 263 263 263 263 264 269 269 263 264 259 252 258 260 268 269 259 257 258 244 242 255 265 266 259 268 272 269 272 263 256 261 265
260 261 259 261 261 261 261 261 263 260 270 269 271 271 271 270 268 268 268 267 266 265 263 263 264 266 263 261 252 248 255 260 258 255 258 250 252 250 257 263 258 262 266 265 259 263 260 257 257
261 261 264 264 264 264 264 264 265 265 268 271 271 273 272 271 270 270 268 267 268 267 267 265 265 259 257 256 250 251 251 255 253 257 253 251 247 254 256 256 256 260 263 264 261 264 270 261 259
Height
11015 11017 11018 11018 11017 11016 11013 11010 11006 10999 10993 10987 10983 10979 10975 10972 10970 10969 10966 10965 10964 10964 10963 10961 10960 10958 10958 10956 10954 10953 10953 10953 10954 10956 10958 10959 10960 10961 10962 10963 10963 10963 10964 10964 10965 10965 10962 10960 10958
11017 11019 11020 11019 11017 11017 11015 11012 11008 11001 10994 10988 10983 10979 10976 10972 10969 10967 10965 10964 10963 10962 10960 10957 10955 10953 10951 10950 10948 10947 10947 10948 10951 10954 10957 10960 10961 10963 10964 10964 10965 10965 10966 10966 10968 10967 10965 10962 10960
11018 11021 11021 11021 11020 11019 11017 11014 11009 11003 10997 10991 10987 10983 10979 10976 10973 10970 10968 10966 10965 10963 10960 10956 10952 10949 10946 10944 10943 10942 10942 10945 10950 10954 10957 10960 10963 10965 10966 10966 10967 10968 10968 10969 10969 10968 10966 10964 10962
11019 11020 11022 11021 11022 11020 11018 11015 11011 11006 11001 10995 10990 10986 10983 10980 10977 10975 10973 10970 10967 10964 10960 10955 10950 10945 10940 10938 10937 10937 10938 10942 10947 10953 10958 10961 10964 10967 10967 10969 10970 10970 10971 10970 10971 10970 10968 10966 10965
11021 11021 11022 11023 11022 11022 11020 11017 11014 11010 11005 11001 10996 10991 10988 10985 10980 10979 10977 10974 10971 10966 10961 10955 10948 10942 10937 10934 10932 10932 10934 10938 10945 10952 10958 10963 10966 10968 10969 10970 10972 10973 10973 10973 10973 10973 10972 10970 10968
11023 11023 11024 11024 11024 11023 11022 11020 11017 11014 11010 11007 11002 10997 10994 10991 10986 10984 10982 10978 10973 10968 10962 10955 10949 10942 10936 10932 10931 10931 10933 10938 10946 10952 10958 10963 10967 10969 10971 10972 10974 10976 10976 10977 10977 10976 10977 10975 10973
11025 11027 11026 11025 11026 11025 11025 11022 11020 11018 11015 11011 11008 11004 11001 10996 10991 10989 10987 10982 10977 10972 10966 10960 10953 10947 10942 10937 10934 10934 10936 10942 10948 10954 10962 10967 10969 10972 10975 10976 10978 10979 10980 10981 10981 10981 10980 10979 10976
11027 11028 11028 11027 11028 11028 11027 11025 11024 11021 11018 11016 11013 11010 11007 11002 10997 10995 10992 10987 10983 10978 10973 10967 10963 10957 10950 10946 10943 10943 10944 10948 10953 10958 10965 10969 10973 10976 10979 10980 10981 10982 10983 10984 10984 10983 10983 10981 10980
11029 11029 11029 11030 11030 11030 11029 11028 11027 11025 11022 11020 11017 11014 11011 11008 11004 11001 10998 10993 10989 10985 10981 10976 10971 10966 10961 10958 10956 10954 10954 10957 10961 10965 10971 10975 10978 10981 10983 10984 10985 10986 10988 10988 10988 10987 10985 10983 10982
11047 11033 11030 11031 11032 11032 11031 11030 11029 11027 11026 11023 11020 11018 11015 11012 11009 11007 11004 11000 10996 10992 10989 10984 10980 10977 10972 10969 10968 10967 10966 10967 10971 10975 10979 10982 10985 10986 10989 10989 10991 10992 10992 10991 10991 10990 10988 10986 10984
11036 11032 11031 11032 11034 11034 11033 11032 11031 11029 11028 11026 11024 11021 11020 11017 11014 11012 11009 11006 11003 10999 10995 10991 10988 10986 10983 10980 10978 10978 10978 10979 10982 10985 10987 10989 10991 10993 10994 10995 10995 10995 10995 10995 10994 10994 10992 10989 10987
11032 11032 11033 11034 11035 11035 11034 11034 11033 11032 11030 11028 11027 11025 11022 11020 11019 11016 11014 11011 11009 11006 11002 10998 10995 10993 10991 10989 10988 10988 10989 10990 10991 10992 10994 10995 10996 10998 10999 10999 10999 10998 10998 10997 10997 10997 10995 10993 10991
11031 11033 11034 11036 11037 11036 11035 11035 11034 11033 11031 11030 11029 11028 11026 11024 11022 11021 11018 11016 11014 11012 11009 11006 11003 11000 10998 10997 10997 10996 10997 10997 10997 10998 10999 11000 11002 11002 11002 11001 11001 11001 11001 11000 10998 10998 10998 10996 10993
11034 11033 11035 11036 11036 11036 11036 11036 11036 11035 11033 11031 11030 11029 11028 11027 11025 11024 11022 11020 11018 11017 11015 11012 11010 11007 11005 11004 11003 11002 11003 11003 11004 11004 11005 11005 11005 11005 11006 11004 11004 11002 11001 11000 10999 10998 10997 10995 10993
11033 11033 11032 11033 11035 11036 11036 11036 11036 11035 11034 11032 11031 11030 11029 11028 11027 11026 11025 11023 11020 11020 11020 11016 11014 11013 11011 11010 11009 11008 11007 11006 11006 11007 11006 11005 11005 11005 11005 11005 11004 11003 11002 11001 11000 10999 10997 10994 10992
11032 11032 11032 11033 11034 11035 11037 11034 11034 11034 11033 11032 11031 11030 11030 11029 11027 11026 11026 11025 11023 11022 11021 11021 11018 11016 11015 11014 11013 11012 11011 11010 11010 11010 11008 11008 11006 11006 11005 11005 11005 11004 11003 11001 11000 10999 10997 10994 10992
11033 11033 11032 11032 11032 11033 11032 11032 11032 11031 11031 11030 11030 11030 11029 11029 11028 11026 11025 11025 11024 11023 11022 11021 11021 11019 11018 11017 11015 11014 11013 11012 11011 11009 11009 11009 11008 11006 11005 11004 11005 11004 11003 11003 11001 11000 10999 10998 10997
11031 11029 11029 11030 11030 11030 11029 11029 11029 11028 11028 11028 11028 11027 11027 11026 11027 11026 11024 11024 11024 11023 11022 11021 11021 11021 11019 11018 11016 11015 11013 11012 11011 11009 11008 11007 11006 11005 11005 11004 11003 11003 11002 11001 11002 11002 11000 10998 10997
11026 11026 11027 11027 11026 11026 11026 11025 11024 11024 11024 11024 11025 11024 11023 11024 11023 11025 11024 11022 11021 11021 11021 11020 11019 11018 11018 11017 11016 11014 11012 11010 11009 11009 11007 11006 11005 11004 11003 11002 11001 11001 11001 11000 10999 10999 10999 10999 10997
11021 11021 11021 11022 11022 11023 11024 11022 11021 11019 11018 11018 11019 11019 11019 11019 11019 11020 11021 11020 11018 11017 11018 11018 11016 11016 11015 11014 11013 11011 11009 11008 11006 11005 11005 11004 11002 11002 11001 10999 10998 10998 10998 10998 10996 10996 10996 10995 10995
11019 11018 11017 11016 11018 11022 11022 11019 11017 11015 11014 11012 11012 11013 11013 11014 11014 11015 11016 11015 11014 11014 11013 11013 11013 11012 11011 11011 11009 11006 11004 11003 11001 11000 11000 10998 10998 10997 10997 10995 10994 10993 10993 10992 10994 10993 10993 10993 10991
11020 11007 11010 11007 11016 11023 10997 11010 11013 11011 11009 11007 11007 11007 11006 11006 11007 11008 11008 11008 11007 11008 11009 11009 11008 11007 11006 11003 11004 11001 10998 10997 10996 10994 10994 10996 10995 10994 10991 10990 10989 10989 10988 10986 10987 10987 10988 10988 10988
11008 11004 11002 11003 11007 11014 11007 11013 11026 11006 11000 10999 10998 10997 10997 10998 10997 10997 10998 10999 10999 10999 11000 11001 11002 11002 10999 10996 10995 10993 10990 10988 10989 10990 10990 10991 10991 10990 10987 10983 10983 10982 10981 10982 10980 10980 10981 10982 10981
10990 10991 10992 10993 10997 10999 11002 11000 11006 11010 10981 10989 10986 10987 10987 10987 10987 10987 10987 10988 10989 10990 10991 10991 10990 10990 10989 10985 10985 10984 10985 10984 10985 10986 10986 10984 10983 10979 10979 10978 10976 10974 10973 10972 10973 10972 10971 10971 10970
10977 10978 10980 10985 10990 10993 10993 10984 10987 10996 10984 10985 10984 10982 10975 10974 10976 10976 10976 10977 10977 10979 10980 10979 10979 10980 10977 10977 10977 10977 10977 10976 10977 10976 10976 10973 10969 10965 10966 10967 10966 10963 10963 10960 10960 10959 10959 10959 10958
10966 10964 10966 10970 10975 10987 10990 10972 10951 10961 10968 10970 10971 10971 10971 10969 10964 10962 10963 10964 10966 10969 10969 10970 10969 10968 10966 10968 10968 10967 10966 10966 10966 10966 10965 10961 10953 10958 10952 10957 10957 10953 10951 10950 10948 10947 10946 10945 10945
10948 10951 10952 10955 10957 10965 10965 10963 10946 10945 10950 10955 10956 10957 10958 10956 10955 10953 10951 10951 10956 10957 10959 10959 10958 10959 10957 10956 10955 10952 10951 10951 10952 10954 10954 10952 10944 10942 10940 10942 10944 10943 10939 10938 10936 10937 10935 10934 10933
10934 10936 10937 10938 10939 10941 10945 10945 10935 10932 10933 10941 10939 10939 10940 10941 10939 10937 10935 10938 10940 10943 10943 10941 10944 10945 10944 10944 10938 10936 10935 10935 10940 10940 10939 10937 10934 10931 10926 10928 10928 10928 10925 10923 10925 10923 10923 10923 10920
10920 10918 10920 10921 10922 10922 10924 10917 10924 10925 10916 10924 10919 10919 10918 10919 10920 10919 10918 10917 10920 10923 10925 10924 10926 10926 10925 10920 10915 10916 10918 10918 10919 10920 10922 10923 10920 10916 10911 10913 10913 10911 10910 10905 10908 10909 10907 10907 10905
10903 10902 10905 10905 10906 10905 10905 10898 10904 10903 10904 10905 10899 10899 10899 10898 10899 10898 10896 10896 10899 10900 10900 10902 10904 10906 10903 10896 10896 10898 10902 10899 10899 10901 10902 10902 10899 10898 10896 10896 10896 10892 10892 10893 10890 10891 10892 10889 10886